RH
12 11 9 7 6 10 12 11 11 10 12 10 6 5 6 7 11 12 14 15 17 20 28 32 36 42 46 58 66 71 76 76 79 74 70 63 80 100 99 89 68 64 94 100 100 100 96 100 100 100 88 100 100 100
12 10 8 7 7 10 12 11 10 10 14 8 5 5 6 7 12 14 17 18 20 26 32 39 48 56 81 82 79 77 70 86 66 64 62 74 94 100 97 94 68 65 64 73 78 81 90 100 100 97 95 93 100 100
13 9 8 7 7 10 13 10 10 10 15 7 5 5 6 7 12 16 21 21 26 36 44 54 62 82 80 70 71 76 75 73 62 51 65 77 81 99 98 85 68 75 85 79 84 85 86 92 92 91 92 95 100 100
11 9 8 7 8 11 14 11 10 10 15 6 4 5 6 7 13 19 23 24 36 50 65 59 72 74 68 68 68 78 79 54 51 60 71 72 97 99 100 99 98 98 98 100 100 99 100 100 100 97 100 100 97 100
10 9 8 9 10 11 14 11 10 10 15 5 4 5 6 7 14 19 24 35 52 62 61 64 70 70 78 77 79 72 69 55 52 62 74 74 86 95 100 100 100 100 100 100 93 83 84 79 96 100 92 81 98 100
12 11 8 10 11 12 14 11 10 9 14 5 4 5 5 7 14 24 28 48 60 64 60 74 69 70 78 93 85 65 75 72 60 65 73 74 80 93 96 86 100 100 100 96 89 94 99 99 100 96 76 69 70 67
19 14 10 13 11 12 13 12 11 9 13 5 4 4 5 9 16 26 38 47 59 60 64 70 72 74 91 98 99 83 71 79 81 82 85 84 86 90 88 93 98 95 99 99 100 100 100 99 100 100 81 68 66 66
22 16 14 17 13 12 13 12 12 9 13 5 4 4 5 9 15 18 36 48 60 56 66 74 78 80 92 98 100 85 80 78 86 73 64 68 76 74 86 85 82 92 93 92 95 100 98 98 100 100 100 92 80 72
30 19 24 18 14 13 14 14 12 10 14 5 4 5 6 10 14 18 39 63 66 72 69 76 78 81 90 100 100 89 79 83 78 84 83 85 92 100 94 94 96 99 100 100 100 99 100 100 100 100 100 98 100 98
23 20 23 20 14 14 15 16 13 10 16 6 5 5 6 11 15 20 32 57 80 87 80 78 88 86 90 93 100 91 84 83 83 81 82 84 96 100 100 100 100 99 100 100 100 100 100 100 100 97 99 100 100 99
25 30 19 22 15 15 16 17 14 13 19 7 5 6 6 11 17 21 26 52 78 88 88 81 89 82 84 91 92 98 93 88 92 83 82 94 100 100 100 100 100 100 98 94 99 100 100 100 100 96 94 99 99 94
25 23 22 22 15 16 18 19 16 21 23 9 7 7 9 14 18 22 27 48 81 93 93 91 88 86 80 84 93 96 94 89 90 92 87 100 98 92 88 94 100 100 100 100 100 100 100 100 100 97 95 95 99 100
22 23 25 21 16 17 19 21 19 23 34 15 9 9 9 16 22 24 31 62 79 80 80 97 100 96 90 85 83 88 92 87 80 87 96 100 100 95 99 99 96 92 93 93 91 98 98 92 86 90 98 100 100 100
21 25 25 20 18 18 20 21 23 28 35 25 12 10 11 15 27 35 42 65 66 69 80 82 100 99 92 87 95 98 95 90 86 82 87 94 100 100 97 96 98 100 97 89 82 83 90 100 100 100 100 100 99 95
23 26 23 21 21 19 20 23 23 36 42 43 23 13 13 13 18 28 51 71 59 70 75 77 80 94 93 88 82 86 100 100 100 99 91 94 93 100 100 100 100 97 99 95 91 92 97 100 100 100 92 85 86 84
24 25 21 23 23 22 21 23 23 35 54 48 49 26 16 14 14 19 34 61 58 63 67 72 68 73 89 96 94 76 83 100 87 81 98 100 99 100 98 96 97 98 99 98 94 92 94 92 94 92 82 81 92 100
24 22 20 23 26 24 23 23 23 26 52 60 55 51 30 23 18 16 22 27 27 43 63 73 86 67 64 81 100 100 98 84 64 62 91 100 100 100 100 100 100 96 94 98 95 91 88 85 78 76 88 96 100 100
23 21 22 24 26 29 23 23 22 24 34 64 63 62 51 37 26 24 18 20 25 23 28 40 60 84 94 88 91 94 96 98 84 76 80 99 99 100 100 100 100 100 100 90 84 87 92 91 90 92 97 100 100 100
22 21 24 24 25 31 25 22 21 23 25 50 69 67 65 59 50 35 26 22 17 18 21 24 23 45 88 99 100 90 88 94 98 93 90 85 79 88 98 100 100 100 100 100 100 100 100 100 100 100 100 100 100 100
21 22 25 26 26 28 28 26 24 23 24 31 65 74 73 71 66 56 46 32 26 22 15 16 22 31 36 71 98 91 97 98 100 97 97 95 92 89 91 94 100 100 100 100 100 100 100 100 100 100 100 100 100 100
20 23 26 27 25 27 27 28 25 23 24 22 37 69 74 77 73 70 60 46 38 32 26 20 15 19 34 34 41 66 79 89 100 100 100 100 100 100 100 96 96 100 100 100 100 100 100 100 100 95 95 99 100 100
20 22 25 29 26 27 25 28 26 24 25 25 23 44 68 76 83 81 72 60 48 34 30 28 25 19 14 20 33 34 36 58 66 92 100 100 100 100 100 100 100 100 100 100 100 100 100 100 100 100 100 99 94 92
21 22 26 27 26 27 29 25 24 22 24 24 22 33 58 72 80 86 79 63 53 42 29 24 25 25 21 14 13 21 30 34 37 50 64 90 100 100 100 100 100 97 99 100 100 100 100 100 100 100 100 100 100 100
21 22 29 29 25 29 28 24 22 21 21 22 21 23 46 63 74 77 71 60 56 44 28 18 18 20 21 18 15 11 16 25 32 36 42 61 78 94 100 100 100 100 100 100 100 100 100 100 100 100 100 100 100 100
22 24 28 26 26 27 24 22 20 19 20 20 19 19 32 54 67 69 62 51 41 30 19 14 13 16 17 16 15 14 11 14 20 27 33 37 52 81 95 96 100 100 100 100 100 100 100 100 100 100 100 100 100 96
23 27 24 25 26 24 23 20 19 19 20 20 20 20 34 52 60 57 49 37 23 16 14 12 12 12 13 14 15 14 13 10 12 18 22 29 40 63 89 100 100 100 100 100 100 100 97 90 86 85 86 89 91 88
22 25 26 24 24 23 21 19 19 20 20 20 19 20 37 54 55 47 35 19 13 12 11 10 9 9 9 10 11 12 12 12 10 11 17 23 33 46 59 84 99 94 98 100 100 100 97 97 100 100 100 100 95 95
21 24 23 22 23 22 20 20 20 19 20 19 20 38 54 53 45 33 16 11 10 9 7 6 5 5 5 6 8 9 10 10 11 10 12 18 25 37 45 56 73 84 91 98 100 97 100 100 100 100 97 95 96 95
22 22 22 23 22 21 20 19 19 20 20 21 36 51 50 43 35 19 13 11 8 5 5 4 4 4 4 5 6 7 8 9 10 10 10 12 15 25 36 45 54 74 87 92 94 98 100 100 99 94 92 90 92 96
21 22 22 22 21 20 18 19 20 20 20 31 46 50 46 37 22 14 11 8 5 4 4 4 4 4 4 4 4 5 6 7 8 9 10 11 12 18 26 32 40 49 56 66 80 86 85 79 74 70 75 82 86 83
20 22 22 22 20 18 19 20 19 18 28 48 55 51 40 24 15 13 9 6 5 4 4 3 3 3 4 4 4 4 5 5 6 7 9 10 11 15 23 30 36 42 51 59 57 51 48 50 55 62 66 69 74 77
21 21 21 20 19 19 21 20 22 40 55 59 55 46 29 17 14 11 7 5 4 4 4 3 3 3 3 4 4 4 4 5 6 7 8 9 10 12 18 25 32 36 38 40 44 48 49 47 46 48 53 53 53 51
21 21 20 20 20 21 23 31 48 60 63 58 50 34 19 15 12 8 6 5 5 4 4 4 4 4 4 4 4 4 5 5 6 6 7 8 8 9 11 16 19 24 29 34 36 35 34 35 37 37 38 40 40 39
Wind_Speed
110 108 103 93 90 85 84 81 77 69 65 57 46 34 21 14 9 9 12 17 21 27 31 35 35 36 37 40 39 35 32 29 26 29 30 29 25 44 44 36 24 23 26 22 16 12 11 11 6 3 5 6 9 15
104 102 96 89 85 81 81 78 72 66 62 53 42 31 20 12 9 9 13 18 24 30 35 38 41 44 41 38 35 31 26 22 27 34 35 31 30 41 43 32 21 14 23 18 16 15 13 15 10 11 9 7 6 8
97 96 89 84 83 78 77 74 68 63 59 49 39 28 18 12 11 12 17 22 29 33 39 44 45 41 39 34 29 23 22 21 31 39 37 34 27 30 34 32 26 13 12 21 18 12 14 15 16 17 17 12 2 2
91 88 83 80 81 76 74 70 66 61 58 45 36 26 16 12 14 18 22 25 33 39 44 45 44 41 36 31 26 21 21 24 36 34 34 31 29 27 23 32 21 19 18 11 19 26 23 26 24 14 9 9 12 11
87 82 78 78 79 73 70 67 62 57 54 42 33 23 13 12 17 21 23 29 38 42 43 43 41 40 33 28 22 22 22 25 35 35 34 29 31 30 26 25 20 12 17 26 21 17 14 10 6 10 6 4 13 16
81 78 74 76 76 70 67 64 60 55 50 37 29 19 11 13 20 24 26 35 41 44 43 43 39 37 33 26 20 22 25 25 28 29 30 27 28 24 23 25 21 20 19 20 17 11 10 7 4 5 7 6 8 10
76 77 70 75 74 67 63 61 57 53 47 35 26 17 10 17 25 31 37 39 42 43 44 41 37 36 33 28 26 26 28 29 28 28 29 28 27 24 22 21 18 18 14 14 8 6 6 6 6 4 5 7 7 7
73 74 69 73 72 63 59 58 55 50 45 32 23 14 9 20 27 32 39 41 44 42 43 41 38 36 35 30 28 27 25 24 22 21 23 22 19 18 18 18 15 15 13 11 11 8 5 4 6 6 6 6 5 7
73 71 70 70 68 59 55 55 52 48 42 29 20 11 10 20 26 29 41 46 47 46 45 42 39 37 37 34 30 30 27 23 22 22 23 23 21 19 18 15 12 10 11 10 7 5 5 6 6 6 6 6 5 5
70 67 68 68 65 55 51 51 49 45 40 28 19 11 9 18 24 31 38 47 49 49 47 45 42 40 39 37 34 32 30 28 25 24 24 21 17 13 11 11 12 13 12 12 10 7 11 12 12 11 11 9 8 8
69 66 65 66 61 50 47 48 45 42 36 26 17 11 7 15 23 27 33 47 51 52 49 47 46 42 41 39 37 34 33 31 29 28 26 23 22 20 18 17 16 15 15 14 12 14 17 17 17 15 14 14 14 15
65 64 63 64 56 46 44 44 42 38 35 25 17 10 4 11 20 25 34 44 55 56 53 52 49 46 42 42 39 36 34 33 31 29 27 26 27 25 25 23 21 20 18 17 18 20 19 19 18 17 17 18 19 21
62 60 62 59 51 44 39 39 38 33 29 28 17 10 5 9 16 21 32 51 57 59 54 54 53 48 45 41 40 39 37 36 34 33 29 28 28 28 26 24 24 24 25 23 20 20 21 20 20 21 23 25 27 28
57 57 60 53 45 41 36 34 34 31 26 23 18 12 5 13 16 23 37 51 52 55 57 55 58 55 50 46 43 42 39 37 37 35 33 32 31 30 28 27 26 25 24 23 23 22 22 23 24 26 28 31 33 36
53 56 55 44 41 38 35 31 30 28 24 21 21 13 9 13 23 27 36 53 52 54 58 58 56 58 54 50 46 43 44 44 46 42 38 36 36 36 34 33 32 30 29 29 29 29 29 30 31 34 35 34 34 35
51 53 49 38 38 36 34 29 27 26 24 19 17 20 14 13 17 32 39 51 50 53 56 58 57 57 57 56 52 50 48 50 48 41 39 41 42 41 40 39 38 37 36 36 36 37 37 36 34 31 29 29 30 33
50 49 43 35 34 35 32 30 25 23 24 23 17 16 16 16 17 21 37 49 50 52 56 58 64 61 56 57 58 58 60 60 48 40 40 42 42 40 39 38 38 37 37 36 35 33 31 31 30 30 30 31 33 33
48 44 36 34 31 35 33 30 25 23 24 25 22 18 17 17 17 21 26 37 52 54 55 54 56 65 67 64 66 69 65 62 55 50 47 46 44 44 45 44 43 41 39 38 36 36 36 36 36 37 37 38 38 37
45 38 34 33 31 33 36 33 26 24 24 27 27 23 20 18 19 21 23 28 36 46 54 57 54 58 68 72 75 73 70 68 65 61 56 55 53 50 49 48 48 47 46 44 44 44 44 44 44 44 43 42 42 42
40 34 34 33 33 33 36 33 31 28 26 26 29 29 26 23 23 21 23 28 32 37 40 43 48 56 64 69 78 81 81 76 72 68 66 62 59 57 57 55 54 53 52 50 49 48 47 47 46 46 46 46 46 46
38 34 34 36 36 34 35 35 35 30 28 28 30 32 31 29 28 28 28 27 31 36 39 39 43 49 58 68 71 77 80 81 82 80 75 71 68 65 62 61 60 59 57 56 54 52 50 49 50 49 50 50 50 51
36 34 35 36 37 37 36 35 36 33 30 30 32 33 33 32 33 33 34 35 35 35 37 41 44 47 50 57 68 75 76 78 79 82 83 82 79 73 71 70 67 65 62 60 59 57 56 56 55 56 56 56 57 58
35 35 35 36 36 37 38 38 38 34 31 33 33 34 35 35 37 37 39 40 39 40 40 40 44 47 51 51 55 64 72 77 79 80 82 85 85 84 81 77 73 70 68 67 65 64 63 63 62 62 62 62 62 64
34 33 36 39 38 37 37 39 41 37 34 33 34 35 36 36 38 40 43 44 45 45 46 44 43 46 50 52 51 54 61 68 77 80 81 83 85 86 85 83 81 79 76 73 72 71 70 70 70 70 70 70 70 72
35 35 37 40 38 37 37 40 39 37 34 34 35 36 37 38 40 44 47 47 46 46 48 46 43 44 47 50 51 52 55 62 67 73 79 79 81 84 84 83 83 82 81 80 79 78 77 76 75 75 75 75 77 79
35 38 38 38 37 37 38 40 39 37 36 35 37 37 37 38 43 47 50 49 47 46 45 43 42 42 44 46 50 52 53 54 59 64 69 75 77 79 81 82 83 83 81 81 81 81 80 81 81 80 79 79 80 83
36 36 39 38 36 37 40 40 38 38 37 39 40 39 37 40 45 49 49 47 44 41 41 41 40 40 41 45 47 50 52 53 55 60 65 68 72 76 77 79 82 82 82 82 82 82 82 81 79 78 78 79 81 81
35 37 38 34 34 37 38 38 39 38 38 40 40 39 40 42 47 48 45 41 39 39 38 37 38 38 39 42 46 49 52 53 55 57 61 67 70 73 75 74 75 77 78 79 80 79 79 79 80 81 82 82 82 82
35 34 32 33 35 37 38 38 38 38 38 39 39 40 43 46 46 42 40 39 38 37 35 34 34 35 37 40 43 48 50 53 55 57 58 62 64 69 71 72 73 72 74 75 75 75 75 76 77 77 76 76 75 75
32 29 32 34 36 38 38 37 38 38 38 39 40 42 45 46 43 41 39 38 37 35 34 33 33 34 36 38 40 44 47 50 52 55 56 59 59 64 67 69 70 70 71 71 71 72 73 74 74 72 71 70 70 70
29 30 33 35 37 37 36 36 37 38 37 38 41 44 46 45 41 39 39 37 35 34 33 31 31 32 33 35 37 39 42 44 46 49 52 54 56 58 62 65 66 67 68 69 71 70 69 68 68 68 68 67 67 67
31 33 35 37 36 35 34 36 36 35 36 40 43 47 46 43 41 40 39 36 33 32 30 29 28 29 30 32 34 36 38 40 42 44 46 49 52 53 56 61 64 66 68 68 67 68 68 67 65 65 64 63 63 63
32 33 35 35 34 33 34 34 34 35 39 43 46 48 44 43 42 39 38 35 31 28 28 27 25 26 28 29 31 32 35 37 39 40 43 45 45 47 50 55 58 60 62 64 65 66 66 65 64 62 63 64 62 59
Wind_Direction
323 325 328 332 336 342 338 340 341 342 339 340 340 341 330 306 272 234 207 186 186 175 171 170 170 165 161 158 162 168 176 180 187 188 187 180 174 185 190 205 211 185 177 182 193 202 206 210 222 219 58 48 32 22
321 323 328 332 337 341 337 339 340 341 337 337 337 337 323 295 246 228 203 193 184 177 174 167 163 158 157 162 167 170 171 180 177 177 166 165 185 190 203 214 206 190 197 205 189 204 229 234 259 251 314 342 6 11
320 323 328 332 336 340 336 338 339 340 336 335 333 334 317 286 232 210 199 194 180 179 174 165 160 159 165 166 164 167 172 183 176 167 163 164 169 178 202 203 206 220 227 219 218 258 259 256 285 294 296 306 234 209
319 323 327 333 336 339 335 337 338 340 335 333 331 330 311 266 220 206 198 192 180 180 176 167 164 166 167 164 166 169 177 176 173 166 165 163 180 185 185 207 227 239 243 241 255 249 267 264 270 278 292 271 211 191
318 324 328 333 335 337 333 336 338 339 335 332 329 324 295 245 212 204 196 189 182 182 180 171 170 168 164 163 166 171 172 165 173 168 169 162 168 178 180 191 195 221 221 239 247 245 251 240 284 306 282 183 206 207
320 322 329 332 334 335 332 335 337 338 335 332 327 318 277 226 206 196 190 191 186 186 183 176 176 168 160 158 174 169 167 162 163 166 166 169 164 171 182 171 183 197 210 220 227 235 263 278 247 236 242 220 189 190
321 321 328 331 333 333 331 335 337 338 337 333 329 317 256 210 199 192 191 192 191 191 187 181 177 167 159 161 172 168 167 160 163 168 170 169 172 176 181 176 188 198 207 224 219 203 205 188 161 161 203 214 220 215
320 320 328 329 330 331 332 334 337 338 338 334 330 318 245 212 206 201 196 192 191 193 189 184 182 175 166 168 182 183 180 171 166 169 172 176 178 183 172 174 168 172 185 186 172 167 190 177 172 167 168 163 180 199
317 320 325 327 326 330 332 332 335 337 339 336 333 317 238 217 213 207 196 195 194 192 193 188 189 183 177 174 183 189 185 180 173 171 167 165 155 151 161 154 156 164 174 171 168 187 230 226 197 189 201 196 198 211
314 320 323 323 323 328 331 332 334 336 341 340 339 316 235 217 213 211 204 196 200 197 196 190 194 191 189 185 185 189 189 186 185 181 182 174 167 167 183 192 191 195 203 216 217 220 232 236 226 222 216 214 223 241
313 318 321 318 320 327 330 331 333 335 343 342 341 324 259 218 217 220 213 201 202 203 200 196 197 198 195 195 192 193 194 195 194 192 188 183 184 186 189 203 212 212 213 217 218 216 221 220 224 225 225 229 240 258
313 315 317 313 316 326 328 330 330 334 340 346 348 331 229 213 222 222 219 210 206 209 207 202 202 204 202 202 204 201 202 201 199 202 198 196 198 203 200 200 204 211 213 217 221 215 216 223 233 242 249 254 264 274
309 312 311 309 313 323 326 326 327 330 340 342 342 343 263 194 224 231 230 214 213 214 213 209 208 209 209 207 211 214 213 213 211 205 197 205 210 209 210 215 217 217 217 221 225 228 231 237 247 256 264 273 278 280
305 307 304 306 312 318 322 321 323 324 329 341 334 333 285 198 197 222 226 224 223 222 219 217 214 213 213 212 211 214 219 223 225 221 212 211 218 225 228 230 232 235 237 240 244 247 251 255 257 261 265 270 276 279
302 301 300 302 307 313 316 318 316 316 317 333 333 319 304 241 208 207 220 227 229 229 226 225 222 221 218 217 217 217 222 225 228 229 227 226 228 230 233 234 234 237 242 248 252 254 256 259 263 267 270 274 279 284
296 296 295 300 302 307 309 311 310 307 305 311 328 320 303 280 245 222 215 224 230 231 232 231 230 226 225 223 223 223 224 228 226 223 226 232 237 236 237 239 240 241 245 249 252 255 258 261 264 267 271 277 284 292
292 290 289 296 298 300 301 302 305 301 292 294 307 311 304 291 279 248 236 234 235 230 230 231 234 235 231 229 229 229 229 230 229 225 224 227 231 235 238 240 243 245 246 250 252 254 257 260 264 266 271 279 286 287
285 285 288 291 294 292 294 293 298 295 287 282 286 296 299 294 282 271 258 245 248 248 241 231 228 234 236 235 233 233 234 236 235 231 227 229 229 231 234 238 241 242 245 249 253 258 262 265 267 269 272 275 278 281
280 283 286 289 290 287 288 290 292 288 284 272 273 278 287 293 292 287 275 266 257 252 253 249 237 228 232 234 237 238 238 238 237 236 233 233 234 234 233 235 238 240 242 246 250 254 258 261 263 266 269 272 275 277
278 281 284 286 289 283 282 284 288 286 282 273 264 266 272 281 289 287 284 278 270 265 259 254 251 243 233 230 233 237 239 239 240 240 239 237 238 238 240 240 242 244 247 249 251 253 257 260 264 268 270 273 274 277
282 282 284 284 287 281 277 281 284 285 279 276 266 262 265 272 278 286 288 282 275 273 269 264 256 242 242 238 233 234 235 237 239 240 242 242 241 240 242 243 245 247 250 253 255 258 259 262 264 266 269 271 274 276
280 282 282 283 286 279 276 276 278 282 281 278 276 268 266 269 273 279 284 286 286 278 271 267 264 260 250 239 240 238 238 236 235 237 239 241 243 243 244 245 245 247 249 252 255 258 261 264 266 268 270 272 275 277
280 282 278 279 278 274 276 276 277 279 278 276 274 271 264 265 270 276 281 286 287 285 280 269 263 260 259 253 243 240 241 240 240 238 236 238 239 242 243 245 247 249 251 253 254 257 260 262 265 267 270 273 276 278
279 280 279 280 276 274 275 273 275 278 278 277 276 275 268 266 269 274 279 284 286 287 283 275 265 258 257 257 252 248 241 241 241 240 239 238 238 241 242 244 247 249 250 252 255 258 260 263 265 268 270 273 275 278
280 276 275 276 275 274 271 271 275 278 279 278 278 276 270 267 271 276 280 285 287 286 280 275 265 258 254 254 254 249 245 241 240 242 243 241 241 240 241 244 246 248 250 252 254 257 259 261 264 267 271 273 276 278
273 273 273 273 274 272 272 274 279 282 283 283 282 280 275 272 273 278 284 290 289 283 278 272 264 258 255 253 252 251 247 244 241 239 241 243 242 241 241 243 246 247 248 251 253 255 258 260 263 267 270 273 275 276
267 271 271 270 270 271 273 278 282 284 286 286 284 282 278 276 280 286 293 291 287 281 275 270 266 261 257 254 251 248 247 245 242 240 240 241 242 243 242 243 244 245 247 249 252 254 257 260 263 266 268 271 273 276
266 266 266 267 268 271 276 280 283 284 285 285 284 282 281 284 288 295 294 290 286 281 277 273 268 263 257 252 249 246 245 244 243 242 240 240 241 243 244 245 244 245 246 247 249 253 256 259 261 264 267 270 273 275
261 262 265 268 271 275 278 282 284 285 285 284 281 281 287 292 298 300 297 295 291 287 281 276 271 264 257 251 247 245 244 243 243 243 242 241 242 242 244 245 245 245 246 248 251 253 255 258 260 263 265 267 270 273
259 262 266 269 272 275 280 284 285 283 283 283 285 290 295 301 306 303 301 298 295 291 285 278 271 263 257 252 246 243 243 241 241 242 242 242 242 241 243 245 247 248 250 251 251 252 254 256 259 262 265 268 271 274
259 262 266 270 275 280 283 284 283 284 286 289 293 298 303 309 307 306 304 302 298 292 285 277 269 262 255 250 245 242 242 241 241 240 240 240 242 242 243 245 248 250 252 253 255 256 258 260 261 263 265 269 272 274
260 264 269 273 278 282 283 284 287 290 292 294 300 304 309 308 309 309 307 304 299 291 284 277 268 260 254 249 246 244 241 240 240 239 239 240 241 242 243 244 245 247 249 252 256 258 261 263 265 267 269 271 274 276
265 268 272 278 281 283 285 288 290 292 295 300 303 306 309 310 312 310 307 303 298 291 284 277 270 262 257 250 245 242 241 241 240 240 240 241 241 242 242 243 246 249 251 254 256 259 261 263 267 270 272 274 276 278